DB0DUS-10 Weather Reports


time (UTC)temp
F
wind
direction
speed
knots
gust
knots
rain 1hr
in
rain 24hr
in
rain mn
in
humidity
%
barometer
mb
20260503193805 62 108 2.6 5.2 0.00 0.02 0.01 82 1012.5
20260503191306 62 156 5.2 7.0 0.00 0.02 0.01 80 1012.3
20260503190805 62 111 4.3 7.0 0.00 0.02 0.01 80 1012.2
20260503184806 63 309 3.5 7.0 0.00 0.02 0.01 78 1012.2
20260503183806 63 125 7.0 7.8 0.00 0.08 0.01 76 1012.0
20260503182306 64 160 5.2 6.1 0.00 0.08 0.01 75 1012.0
20260503180806 64 133 3.5 7.8 0.00 0.08 0.01 74 1012.0
20260503175806 64 170 7.8 9.6 0.00 0.08 0.01 74 1012.0
20260503173806 63 188 6.1 12.2 0.00 0.08 0.01 73 1011.9
20260503173306 64 184 7.0 7.8 0.00 0.08 0.01 74 1012.0
20260503170806 63 202 10.4 13.0 0.00 0.08 0.01 74 1011.8
20260503150806 61 198 10.4 13.9 0.01 0.08 0.01 81 1012.3
20260503150307 61 215 8.7 13.0 0.01 0.08 0.01 80 1012.3
20260503130806 66 168 9.6 18.2 0.00 0.07 0.00 61 1012.4
20260503110806 72 151 11.3 20.9 0.00 0.07 0.00 36 1012.1
20260503080807 71 153 12.2 12.2 0.00 0.07 0.00 43 1012.0
20260503070807 66 147 5.2 9.6 0.00 0.07 0.00 54 1012.1
20260503053807 61 22 4.3 13.0 0.00 0.07 0.00 68 1012.0
20260503052808 60 125 7.0 12.2 0.00 0.07 0.00 70 1011.9
20260503050807 60 111 7.0 11.3 0.00 0.07 0.00 73 1012.0
20260503050308 60 130 6.1 11.3 0.00 0.07 0.00 72 1011.9
20260503043807 60 90 7.0 12.2 0.00 0.07 0.00 75 1011.9
20260503041308 59 135 9.6 12.2 0.00 0.07 0.00 77 1011.9
20260503040807 59 135 8.7 12.2 0.00 0.07 0.00 78 1011.9
20260503034900 59 94 6.1 12.2 0.00 0.07 0.00 82 1012.0
20260503034808 59 94 6.1 12.2 0.00 0.07 0.00 82 1012.0
20260503033807 59 151 8.7 10.4 0.00 0.07 0.00 85 1012.1
20260503030807 58 127 1.7 3.5 0.00 0.07 0.00 90 1012.1
20260503025810 58 293 0.0 3.5 0.00 0.07 0.00 90 1012.1
20260503023807 58 94 0.9 3.5 0.00 0.07 0.00 90 1012.6
20260503023308 58 136 3.5 4.3 0.00 0.07 0.00 90 1012.6
20260503020807 58 320 0.0 4.3 0.00 0.07 0.00 91 1012.6
20260503014308 58 348 0.9 5.2 0.00 0.07 0.00 91 1012.8
20260503013807 58 143 3.5 4.3 0.00 0.07 0.00 91 1012.9
20260503011808 58 84 1.7 3.5 0.00 0.07 0.00 91 1013.2
20260503010807 58 123 0.0 0.0 0.00 0.07 0.00 90 1013.4
20260503005308 58 28 0.9 3.5 0.00 0.07 0.00 90 1013.4
20260503003807 58 163 0.0 4.3 0.00 0.07 0.00 89 1013.5
20260503002808 58 45 2.6 6.1 0.00 0.07 0.00 89 1013.8
20260503000807 58 345 2.6 5.2 0.00 0.07 0.00 89 1014.2
20260503000308 59 327 3.5 7.8 0.00 0.07 0.00 89 1014.2
20260502233808 59 122 10.4 16.5 0.00 0.07 0.00 87 1014.3
20260502231308 60 137 1.7 5.2 0.00 0.07 0.00 87 1014.0
20260502230808 60 118 4.3 5.2 0.00 0.07 0.00 87 1014.0
20260502224808 60 84 2.6 3.5 0.00 0.07 0.07 86 1014.2
20260502223808 60 113 1.7 1.7 0.00 0.07 0.07 86 1014.3
20260502220808 59 46 0.9 1.7 0.00 0.07 0.07 87 1014.4
20260502215808 59 81 0.0 4.3 0.00 0.07 0.07 87 1014.3
20260502213808 59 88 1.7 7.0 0.00 0.07 0.07 87 1014.3
20260502213309 59 59 1.7 6.1 0.00 0.07 0.07 87 1014.3
20260502210808 59 300 2.6 6.1 0.00 0.07 0.07 87 1014.6
20260502204309 59 355 5.2 10.4 0.01 0.07 0.07 87 1014.9
20260502203808 59 98 3.5 8.7 0.01 0.07 0.07 87 1014.8
20260502201809 59 158 1.7 8.7 0.04 0.07 0.07 86 1015.1
20260502200808 59 57 4.3 7.0 0.05 0.07 0.07 86 1015.3